Stations météo

réclame
Mon MeteoGroup
Reus, Espagne (8175): Température de l'air & dewpoint: 09.11.2018 22:00:00 - 15.11.2018 22:00:00 (CET)Reus, Espagne (8175): Vitesse du vent: 09.11.2018 22:00:00 - 15.11.2018 22:00:00 (CET)Reus, Espagne (8175): Direction du vent: 09.11.2018 22:00:00 - 15.11.2018 22:00:00 (CET)Reus, Espagne (8175): reduced air pressure: 09.11.2018 22:00:00 - 15.11.2018 22:00:00 (CET)Reus, Espagne (8175): visibility: 09.11.2018 22:00:00 - 15.11.2018 22:00:00 (CET)
Date & Time tt [°C] td [°C] ff [km/h] ff [knt] dd ppp [hPa] vv [km]
15.11.2018 22:00:00 14,6 13,0 9 5 NE 1020,9 30
15.11.2018 21:00:00 15,1 12,8 8 4 NE 1020,3 30
15.11.2018 20:00:00 15,8 13,0 11 6 NNE 1020,2 30
15.11.2018 19:00:00 16,6 13,1 13 7 N 1019,9 20
15.11.2018 18:00:00 16,1 13,0 13 7 NNE 1019,5 30
15.11.2018 17:00:00 17,8 13,7 11 6 NNE 1019,3 30
15.11.2018 16:00:00 18,0 12,8 16 9 N 1019,1 20
15.11.2018 15:00:00 18,5 13,8 18 10 N 1019,4 30
15.11.2018 14:00:00 18,9 14,7 18 10 N 1019,6 30
15.11.2018 13:00:00 18,1 15,7 16 9 NE 1020,1 20
15.11.2018 12:00:00 18,0 15,0 18 10 NE 1020,1 30
15.11.2018 11:00:00 17,3 15,2 16 9 NNE 1020,5 23
15.11.2018 10:00:00 16,1 15,1 15 8 NNE 1020,4 9
15.11.2018 09:00:00 16,5 14,6 13 7 NE 1020,0 23
15.11.2018 08:00:00 16,2 14,6 16 9 NNE 1019,4 26
15.11.2018 07:00:00 16,6 15,0 15 8 NNE 1019,3 15
15.11.2018 06:00:00 16,1 15,1 13 7 NNE 1019,4 14
15.11.2018 05:00:00 16,3 15,0 15 8 NE 1019,5 9
15.11.2018 04:00:00 16,7 14,8 13 7 NE 1019,9 15
15.11.2018 03:00:00 16,4 14,9 11 6 NE 1020,7 12
15.11.2018 02:00:00 16,3 14,4 11 6 NNE 1021,0 9
15.11.2018 01:00:00 16,1 14,3 13 7 NNE 1021,3 15
15.11.2018 00:00:00 16,0 14,4 9 5 NNE 1021,9 15
14.11.2018 23:00:00 16,4 14,3 9 5 NNE 1022,4 16
14.11.2018 22:00:00 16,2 14,1 8 4 N 1022,6 16
14.11.2018 21:00:00 15,1 14,0 8 4 NE 1022,4 10
14.11.2018 20:00:00 15,8 14,4 9 5 N 1022,6 15
14.11.2018 19:00:00 15,6 14,8 9 5 ENE 1022,8 12
14.11.2018 18:00:00 16,7 15,1 11 6 E 1022,7 13
14.11.2018 17:00:00 17,8 15,4 11 6 ESE 1022,8 20
14.11.2018 16:00:00 18,4 15,8 16 9 ESE 1022,6 20
14.11.2018 15:00:00 19,9 15,5 16 9 ESE 1022,9 20
14.11.2018 14:00:00 21,0 14,6 18 10 E 1023,1 30
14.11.2018 13:00:00 19,4 14,8 11 6 E 1023,6 20
14.11.2018 12:00:00 18,8 14,4 13 7 NE 1024,4 26
14.11.2018 11:00:00 - - - - - - -
14.11.2018 10:00:00 18,4 14,1 5 3 N 1016,7 15
14.11.2018 09:00:00 - - - - - - -
14.11.2018 08:00:00 - - - - - - -
14.11.2018 07:00:00 - - - - - - 15
14.11.2018 06:00:00 - - - - - - -
14.11.2018 05:00:00 - - - - - - -
14.11.2018 04:00:00 - - - - - - -
14.11.2018 03:00:00 - - - - - - -
14.11.2018 02:00:00 - - - - - - -
14.11.2018 01:00:00 - - - - - - -
14.11.2018 00:00:00 - - - - - - -
13.11.2018 23:00:00 - - - - - - -
13.11.2018 22:00:00 - - - - - - -
13.11.2018 21:00:00 - - - - - - -
13.11.2018 20:00:00 16,6 15,4 4 2 NNW 1026,2 7
13.11.2018 19:00:00 17,6 15,9 4 2 N 1026,0 10
13.11.2018 18:00:00 17,5 15,9 11 6 E 1025,4 11
13.11.2018 17:00:00 19,0 16,1 15 8 ESE 1024,9 14
13.11.2018 16:00:00 20,5 16,4 15 8 E 1024,5 17
13.11.2018 15:00:00 22,0 16,3 16 9 ESE 1024,1 13
13.11.2018 14:00:00 21,9 16,2 15 8 E 1024,2 22
13.11.2018 13:00:00 21,7 15,2 16 9 ENE 1024,7 27
13.11.2018 12:00:00 21,4 14,9 16 9 NE 1024,9 29
13.11.2018 11:00:00 19,8 14,3 18 10 NNE 1025,2 30
13.11.2018 10:00:00 18,2 13,2 15 8 N 1024,9 30
13.11.2018 09:00:00 14,4 12,8 8 4 N 1024,3 25
13.11.2018 08:00:00 11,8 11,1 13 7 NNW 1023,8 12
13.11.2018 07:00:00 10,8 10,3 9 5 N 1023,2 21
13.11.2018 06:00:00 11,6 10,9 5 3 N 1022,4 19
13.11.2018 05:00:00 11,4 10,9 8 4 NNE 1022,1 18
13.11.2018 04:00:00 11,4 10,8 2 1 NNE 1021,9 16
13.11.2018 03:00:00 12,6 11,4 8 4 NNE 1021,6 19
13.11.2018 02:00:00 12,2 11,5 8 4 NE 1021,1 13
13.11.2018 01:00:00 13,2 12,1 9 5 NNE 1021,0 14
13.11.2018 00:00:00 14,9 13,0 13 7 N 1020,6 24
12.11.2018 23:00:00 14,3 13,2 8 4 NNE 1020,4 11
12.11.2018 22:00:00 14,8 13,4 8 4 N 1020,4 15
12.11.2018 21:00:00 15,5 14,0 9 5 NNE 1020,0 19
12.11.2018 20:00:00 15,5 14,6 9 5 N 1019,4 13
12.11.2018 19:00:00 16,2 15,3 8 4 ENE 1019,1 15
12.11.2018 18:00:00 17,0 15,1 11 6 E 1018,3 15
12.11.2018 17:00:00 18,5 14,9 11 6 E 1017,9 10
12.11.2018 16:00:00 19,4 14,7 18 10 E 1017,6 20
12.11.2018 15:00:00 20,3 15,5 16 9 ESE 1017,5 27
12.11.2018 14:00:00 21,0 14,9 22 12 E 1017,4 12
12.11.2018 13:00:00 20,5 14,7 13 7 E 1017,7 25
12.11.2018 12:00:00 20,4 13,2 13 7 E 1017,9 29
12.11.2018 11:00:00 19,0 14,0 4 2 NE 1018,4 26
12.11.2018 10:00:00 17,7 14,1 8 4 NE 1018,3 20
12.11.2018 09:00:00 15,0 14,0 11 6 N 1018,2 16
12.11.2018 08:00:00 13,1 12,6 8 4 N 1017,8 6
12.11.2018 07:00:00 13,3 13,2 13 7 N 1017,3 9
12.11.2018 06:00:00 13,6 13,4 8 4 N 1016,9 7
12.11.2018 05:00:00 15,6 14,8 4 2 ENE 1016,7 9
12.11.2018 04:00:00 16,2 15,4 8 4 S 1016,7 2,8
12.11.2018 03:00:00 15,9 15,0 4 2 S 1016,4 11
12.11.2018 02:00:00 16,2 15,0 8 4 SE 1016,0 11
12.11.2018 01:00:00 16,4 15,8 11 6 SE 1016,1 3,8
12.11.2018 00:00:00 15,3 15,1 9 5 NNE 1016,0 7
11.11.2018 23:00:00 15,4 15,2 9 5 NE 1016,0 10
11.11.2018 22:00:00 15,9 15,7 9 5 NNE 1015,9 10
11.11.2018 21:00:00 15,4 15,0 9 5 N 1015,6 9
11.11.2018 20:00:00 15,4 15,0 9 5 NE 1015,1 9
11.11.2018 19:00:00 15,8 15,3 9 5 NE 1014,7 15
11.11.2018 18:00:00 15,9 15,2 8 4 ENE 1014,1 14
11.11.2018 17:00:00 18,2 15,8 11 6 SE 1013,9 19
11.11.2018 16:00:00 20,1 13,7 9 5 ESE 1013,8 30
11.11.2018 15:00:00 20,3 15,3 13 7 SE 1013,8 28
11.11.2018 14:00:00 20,9 12,6 13 7 SE 1014,3 30
11.11.2018 13:00:00 22,7 12,7 9 5 SSE 1014,5 30
11.11.2018 12:00:00 20,7 11,7 0 0 N 1015,4 30
11.11.2018 11:00:00 18,3 11,9 4 2 NNW 1015,8 30
11.11.2018 10:00:00 17,4 12,3 4 2 SSE 1015,5 30
11.11.2018 09:00:00 14,3 11,6 9 5 NE 1015,1 30
11.11.2018 08:00:00 11,1 10,1 8 4 NE 1014,6 30
11.11.2018 07:00:00 11,0 10,2 9 5 NNE 1013,7 30
11.11.2018 06:00:00 11,4 10,1 13 7 N 1013,7 30
11.11.2018 05:00:00 10,6 9,3 5 3 N 1013,6 28
11.11.2018 04:00:00 11,3 10,2 9 5 N 1013,8 30
11.11.2018 03:00:00 10,6 9,9 8 4 NW 1014,2 27
11.11.2018 02:00:00 11,5 10,5 9 5 NNW 1013,9 24
11.11.2018 01:00:00 11,3 10,6 9 5 NNW 1013,8 30
11.11.2018 00:00:00 11,3 10,4 8 4 N 1013,8 22
10.11.2018 23:00:00 11,1 10,4 9 5 NNW 1013,8 26
10.11.2018 22:00:00 11,4 10,4 0 0 N 1013,5 20
10.11.2018 21:00:00 12,1 11,1 4 2 NW 1012,9 9
10.11.2018 20:00:00 13,0 11,8 8 4 NNW 1012,4 16
10.11.2018 19:00:00 14,3 12,6 9 5 NW 1012,4 30
10.11.2018 18:00:00 15,3 12,5 8 4 SW 1012,1 30
10.11.2018 17:00:00 17,5 12,3 8 4 SW 1011,6 30
10.11.2018 16:00:00 18,9 12,6 11 6 S 1011,4 30
10.11.2018 15:00:00 20,4 12,5 9 5 S 1011,4 30
10.11.2018 14:00:00 18,8 11,3 9 5 S 1011,7 30
10.11.2018 13:00:00 18,3 10,7 11 6 SSW 1012,6 30
10.11.2018 12:00:00 18,5 8,8 8 4 SSE 1013,0 30
10.11.2018 11:00:00 18,1 10,0 8 4 SSW 1014,0 30
10.11.2018 10:00:00 13,9 8,5 0 0 N 1014,2 30
10.11.2018 09:00:00 10,9 8,0 4 2 NE 1014,1 30
10.11.2018 08:00:00 8,7 6,6 5 3 N 1013,9 30
10.11.2018 07:00:00 8,3 6,6 8 4 ENE 1014,0 30
10.11.2018 06:00:00 9,3 7,4 5 3 NNE 1014,2 30
10.11.2018 05:00:00 9,1 6,5 5 3 N 1014,5 30
10.11.2018 04:00:00 8,0 6,0 8 4 NE 1014,9 30
10.11.2018 03:00:00 10,0 5,5 8 4 NNW 1014,8 30
10.11.2018 02:00:00 10,8 5,2 15 8 WSW 1015,1 30
10.11.2018 01:00:00 10,3 4,9 15 8 W 1015,0 30
10.11.2018 00:00:00 10,6 4,4 16 9 WSW 1015,8 30
09.11.2018 23:00:00 12,5 4,4 22 12 W 1015,6 30
09.11.2018 22:00:00 13,0 5,3 22 12 WNW 1015,4 30

tt = Température de l'air
td = dewpoint
ff = Vitesse du vent
dd = Direction du vent
ppp = reduced air pressure
vv = visibility

stations d'obs. à proximité